Starlink 31758

operational
NORAD ID: 59621 Int'l Des: 2024-080 Owner: SPXS Country: US Constellation: starlink
LEOCIRCULAR

About Starlink 31758

Description loading...

Live Position

Loading 3D Globe...

Upcoming Passes

Altitude History

Altitude vs Time

uPlot chart will show altitude changes over time

Two-Line Element Set

1 59621U 24080W 25256.47082946 -.00000938 00000-0 -24587-4 0 9999
2 59621 43.0002 314.9130 0001050 274.6068 85.4664 15.27578574 77473
Epoch: Sep 13, 2025 • Age: 57 hours

Current Status

Altitude 489.8 km
Velocity 7.62 km/s
Sub-Earth Point -27.48°S, 151.43°W
Launch Date Apr 28, 2024
Age 1.3 years
Type internet

Technical Details

Classification Payload
Mass 730.00 kg
Dry Mass 700.00 kg
Total Mass 730.00 kg
Length 0.30 m
Diameter 4.10 m
Span 29.00 m
Shape Box + pan
Manufacturer SPXS
Bus Type Starlink V2M
Phase Status In Orbit
Owner/State SPXS/US

Large Constellations

Loading constellations...